Location: Karlsruhe
(49.0131°N, 8.3874°E)
Time: 21:29:31
(UTC+01:00)

ISS - Pass Details

Date: 18 November 2017
Orbit: 402 x 407 km, 51.6° (Epoch: 24 November)

Event Time Altitude Azimuth Distance (km) Brightness Sun altitude
Exits shadow 05:31:15 12° 182° (S) 1,361 -1.1 -20.9°
Drops below altitude 10° 05:31:35 10° 177° (S) 1,448 -0.9 -20.9°
Sets 05:34:06 0° 157° (SSE) 2,303 0.4 -20.5°
